13-07-2023, 00:00:02,    269,    0.0,   12.6,   0.00,   0.00, 1011.6,   98.6, -999.0
13-07-2023, 00:00:12,    269,    0.0,   12.7,   0.00,   0.00, 1011.6,   98.6, -999.0
13-07-2023, 00:00:22,    269,    0.0,   12.7,   0.00,   0.00, 1011.6,   98.6, -999.0
13-07-2023, 00:00:32,    269,    0.0,   12.6,   0.00,   0.00, 1011.6,   98.7, -999.0
13-07-2023, 00:00:42,    267,    0.2,   12.6,   0.00,   0.00, 1011.7,   99.0, -999.0
13-07-2023, 00:00:52,    269,    0.0,   12.6,   0.00,   0.00, 1011.6,   98.8, -999.0
13-07-2023, 00:01:02,    269,    0.0,   12.6,   0.00,   0.00, 1011.6,   98.6, -999.0
13-07-2023, 00:01:12,    268,    0.0,   12.6,   0.00,   0.00, 1011.6,   98.6, -999.0
13-07-2023, 00:01:22,    269,    0.0,   12.6,   0.00,   0.00, 1011.5,   98.6, -999.0
13-07-2023, 00:01:32,    255,    0.1,   12.6,   0.00,   0.00, 1011.6,   98.7, -999.0
13-07-2023, 00:01:42,    254,    0.7,   12.8,   0.00,   0.00, 1011.7,   99.0, -999.0
13-07-2023, 00:01:52,    254,    0.1,   12.7,   0.00,   0.00, 1011.6,   98.8, -999.0
13-07-2023, 00:02:02,    254,    0.3,   12.7,   0.00,   0.00, 1011.7,   99.0, -999.0
13-07-2023, 00:02:12,    228,    0.2,   12.7,   0.00,   0.00, 1011.6,   98.9, -999.0
13-07-2023, 00:02:22,    225,    0.4,   12.7,   0.00,   0.00, 1011.7,   99.0, -999.0
13-07-2023, 00:02:32,    225,    0.4,   12.7,   0.00,   0.00, 1011.7,   99.0, -999.0
13-07-2023, 00:02:42,    225,    0.8,   12.8,   0.00,   0.00, 1011.7,   98.9, -999.0
13-07-2023, 00:02:52,    225,    0.2,   12.7,   0.00,   0.00, 1011.7,   98.9, -999.0
13-07-2023, 00:03:02,    224,    0.0,   12.7,   0.00,   0.00, 1011.6,   98.7, -999.0
13-07-2023, 00:03:12,    224,    0.0,   12.7,   0.00,   0.00, 1011.6,   98.7, -999.0
13-07-2023, 00:03:22,    225,    0.0,   12.8,   0.00,   0.00, 1011.6,   98.7, -999.0
13-07-2023, 00:03:32,    224,    0.0,   12.8,   0.00,   0.00, 1011.6,   98.6, -999.0
13-07-2023, 00:03:42,    225,    0.0,   12.7,   0.00,   0.00, 1011.6,   98.7, -999.0
13-07-2023, 00:03:52,    225,    0.0,   12.8,   0.00,   0.00, 1011.6,   98.7, -999.0
13-07-2023, 00:04:02,    225,    0.0,   12.7,   0.00,   0.00, 1011.6,   98.7, -999.0
13-07-2023, 00:04:11,    224,    0.0,   12.7,   0.00,   0.00, 1011.6,   98.7, -999.0
13-07-2023, 00:04:22,    213,    0.4,   12.7,   0.00,   0.00, 1011.7,   98.9, -999.0
13-07-2023, 00:04:32,    224,    1.0,   12.8,   0.00,   0.00, 1011.7,   99.1, -999.0
13-07-2023, 00:04:42,    225,    0.2,   12.8,   0.00,   0.00, 1011.7,   98.9, -999.0
13-07-2023, 00:04:51,    225,    0.0,   12.7,   0.00,   0.00, 1011.6,   98.6, -999.0
13-07-2023, 00:05:02,    224,    0.0,   12.7,   0.00,   0.00, 1011.6,   98.7, -999.0
13-07-2023, 00:05:12,    224,    0.0,   12.7,   0.00,   0.00, 1011.6,   98.7, -999.0
13-07-2023, 00:05:21,    224,    0.0,   12.7,   0.00,   0.00, 1011.6,   98.7, -999.0
13-07-2023, 00:05:31,    224,    0.0,   12.7,   0.00,   0.00, 1011.6,   98.6, -999.0
13-07-2023, 00:05:42,    225,    0.0,   12.7,   0.00,   0.00, 1011.6,   98.7, -999.0
13-07-2023, 00:05:51,    224,    0.0,   12.7,   0.00,   0.00, 1011.6,   98.8, -999.0
13-07-2023, 00:06:01,    224,    0.0,   12.7,   0.00,   0.00, 1011.6,   98.8, -999.0
13-07-2023, 00:06:12,    224,    0.0,   12.7,   0.00,   0.00, 1011.5,   98.6, -999.0
13-07-2023, 00:06:22,    224,    0.0,   12.6,   0.00,   0.00, 1011.5,   98.7, -999.0
13-07-2023, 00:06:31,    224,    0.0,   12.7,   0.00,   0.00, 1011.6,   98.7, -999.0
13-07-2023, 00:06:41,    224,    0.0,   12.7,   0.00,   0.00, 1011.6,   98.7, -999.0
13-07-2023, 00:06:52,    224,    0.0,   12.6,   0.00,   0.00, 1011.6,   98.7, -999.0
13-07-2023, 00:07:01,    213,    0.2,   12.6,   0.00,   0.00, 1011.6,   98.8, -999.0
13-07-2023, 00:07:11,    211,    0.8,   12.7,   0.00,   0.00, 1011.7,   99.0, -999.0
13-07-2023, 00:07:21,    207,    0.1,   12.7,   0.00,   0.00, 1011.7,   98.9, -999.0
13-07-2023, 00:07:31,    207,    0.2,   12.6,   0.00,   0.00, 1011.6,   98.7, -999.0
13-07-2023, 00:07:41,    205,    0.0,   12.7,   0.00,   0.00, 1011.6,   98.8, -999.0
13-07-2023, 00:07:51,    205,    0.0,   12.7,   0.00,   0.00, 1011.5,   98.6, -999.0
13-07-2023, 00:08:01,    205,    0.0,   12.7,   0.00,   0.00, 1011.6,   98.6, -999.0
13-07-2023, 00:08:11,    205,    0.0,   12.7,   0.00,   0.00, 1011.6,   98.6, -999.0
13-07-2023, 00:08:21,    205,    0.0,   12.7,   0.00,   0.00, 1011.6,   98.9, -999.0
13-07-2023, 00:08:31,    234,    0.0,   12.7,   0.00,   0.00, 1011.6,   98.7, -999.0
13-07-2023, 00:08:41,    233,    0.0,   12.6,   0.00,   0.00, 1011.5,   98.7, -999.0
13-07-2023, 00:08:51,    233,    0.0,   12.7,   0.00,   0.00, 1011.6,   98.7, -999.0
13-07-2023, 00:09:01,    233,    0.0,   12.6,   0.00,   0.00, 1011.5,   98.7, -999.0
13-07-2023, 00:09:11,    234,    0.0,   12.8,   0.00,   0.00, 1011.6,   98.6, -999.0
13-07-2023, 00:09:21,    234,    0.0,   12.8,   0.00,   0.00, 1011.6,   98.7, -999.0
13-07-2023, 00:09:31,    234,    0.0,   12.7,   0.00,   0.00, 1011.6,   98.7, -999.0
13-07-2023, 00:09:41,    234,    0.0,   12.7,   0.00,   0.00, 1011.5,   98.6, -999.0
13-07-2023, 00:09:51,    234,    0.0,   12.8,   0.00,   0.00, 1011.5,   98.7, -999.0
13-07-2023, 00:10:01,    235,    0.2,   12.7,   0.00,   0.00, 1011.7,   99.0, -999.0
13-07-2023, 00:10:11,    235,    0.0,   12.7,   0.00,   0.00, 1011.5,   98.6, -999.0
13-07-2023, 00:10:21,    235,    0.0,   12.7,   0.00,   0.00, 1011.5,   98.7, -999.0
13-07-2023, 00:10:31,    235,    0.0,   12.7,   0.00,   0.00, 1011.6,   98.6, -999.0
13-07-2023, 00:10:41,    235,    0.0,   12.7,   0.00,   0.00, 1011.6,   98.7, -999.0
13-07-2023, 00:10:51,    235,    0.0,   12.7,   0.00,   0.00, 1011.6,   98.6, -999.0
13-07-2023, 00:11:01,    237,    0.5,   12.7,   0.00,   0.00, 1011.6,   98.9, -999.0
13-07-2023, 00:11:11,    237,    0.0,   12.7,   0.00,   0.00, 1011.5,   98.7, -999.0
13-07-2023, 00:11:20,    237,    0.0,   12.6,   0.00,   0.00, 1011.5,   98.6, -999.0
13-07-2023, 00:11:31,    220,    0.0,   12.7,   0.00,   0.00, 1011.6,   98.7, -999.0
13-07-2023, 00:11:41,    226,    0.4,   12.7,   0.00,   0.00, 1011.7,   98.9, -999.0
13-07-2023, 00:11:51,    225,    0.1,   12.7,   0.00,   0.00, 1011.6,   98.9, -999.0
13-07-2023, 00:12:00,    225,    0.2,   12.7,   0.00,   0.00, 1011.6,   98.9, -999.0
13-07-2023, 00:12:11,    241,    0.5,   12.6,   0.00,   0.00, 1011.6,   99.0, -999.0
13-07-2023, 00:12:21,    283,    0.7,   12.7,   0.00,   0.00, 1011.6,   99.0, -999.0
13-07-2023, 00:12:30,    283,    0.0,   12.7,   0.00,   0.00, 1011.6,   98.8, -999.0
13-07-2023, 00:12:41,    282,    0.0,   12.7,   0.00,   0.00, 1011.5,   98.6, -999.0
13-07-2023, 00:12:51,    282,    0.0,   12.7,   0.00,   0.00, 1011.5,   98.7, -999.0
13-07-2023, 00:13:00,    282,    0.0,   12.7,   0.00,   0.00, 1011.5,   98.6, -999.0
13-07-2023, 00:13:10,    227,    0.1,   12.7,   0.00,   0.00, 1011.5,   98.7, -999.0
13-07-2023, 00:13:21,    221,    0.6,   12.7,   0.00,   0.00, 1011.6,   98.9, -999.0
13-07-2023, 00:13:30,    224,    0.0,   12.7,   0.00,   0.00, 1011.5,   98.8, -999.0
13-07-2023, 00:13:40,    255,    2.3,   12.8,   0.00,   0.00, 1011.6,   99.1, -999.0
13-07-2023, 00:13:50,    244,    1.3,   12.8,   0.00,   0.00, 1011.7,   99.0, -999.0
13-07-2023, 00:14:01,    240,    0.1,   12.7,   0.00,   0.00, 1011.6,   98.7, -999.0
13-07-2023, 00:14:10,    239,    1.1,   12.8,   0.00,   0.00, 1011.7,   99.0, -999.0
13-07-2023, 00:14:20,    245,    0.7,   12.8,   0.00,   0.00, 1011.6,   99.0, -999.0
13-07-2023, 00:14:30,    243,    1.6,   12.8,   0.00,   0.00, 1011.6,   99.0, -999.0
13-07-2023, 00:14:40,    242,    1.1,   12.8,   0.00,   0.00, 1011.7,   99.0, -999.0
13-07-2023, 00:14:50,    244,    0.6,   12.8,   0.00,   0.00, 1011.6,   98.9, -999.0
13-07-2023, 00:15:00,    256,    1.2,   12.8,   0.00,   0.00, 1011.7,   99.1, -999.0
13-07-2023, 00:15:10,    249,    0.1,   12.8,   0.00,   0.00, 1011.6,   98.8, -999.0
13-07-2023, 00:15:20,    250,    1.9,   12.9,   0.00,   0.00, 1011.7,   99.1, -999.0
13-07-2023, 00:15:30,    219,    1.3,   12.8,   0.00,   0.00, 1011.7,   99.0, -999.0
13-07-2023, 00:15:40,    204,    1.5,   12.8,   0.00,   0.00, 1011.7,   99.0, -999.0
13-07-2023, 00:15:50,    224,    1.8,   12.8,   0.00,   0.00, 1011.6,   99.1, -999.0
13-07-2023, 00:16:00,    239,    0.6,   12.8,   0.00,   0.00, 1011.6,   99.0, -999.0
13-07-2023, 00:16:10,    239,    0.1,   12.8,   0.00,   0.00, 1011.6,   98.6, -999.0
13-07-2023, 00:16:20,    251,    0.1,   12.8,   0.00,   0.00, 1011.6,   98.8, -999.0
13-07-2023, 00:16:30,    251,    0.0,   12.8,   0.00,   0.00, 1011.6,   98.7, -999.0
13-07-2023, 00:16:40,    251,    0.0,   12.8,   0.00,   0.00, 1011.5,   98.6, -999.0
13-07-2023, 00:16:50,    251,    0.0,   12.8,   0.00,   0.00, 1011.5,   98.6, -999.0
13-07-2023, 00:17:00,    251,    0.0,   12.6,   0.00,   0.00, 1011.5,   98.6, -999.0
13-07-2023, 00:17:10,    261,    0.9,   12.8,   0.00,   0.00, 1011.6,   99.0, -999.0
13-07-2023, 00:17:20,    261,    0.0,   12.8,   0.00,   0.00, 1011.5,   98.8, -999.0
13-07-2023, 00:17:30,    261,    0.0,   12.7,   0.00,   0.00, 1011.5,   98.6, -999.0
13-07-2023, 00:17:40,    261,    0.0,   12.7,   0.00,   0.00, 1011.5,   98.6, -999.0
13-07-2023, 00:17:50,    260,    0.0,   12.8,   0.00,   0.00, 1011.5,   98.7, -999.0
13-07-2023, 00:18:00,    261,    0.0,   12.8,   0.00,   0.00, 1011.5,   98.6, -999.0
13-07-2023, 00:18:10,    260,    0.0,   12.8,   0.00,   0.00, 1011.4,   98.6, -999.0
13-07-2023, 00:18:20,    244,    0.0,   12.8,   0.00,   0.00, 1011.5,   98.7, -999.0
13-07-2023, 00:18:30,    215,    0.5,   12.8,   0.00,   0.00, 1011.6,   98.9, -999.0
13-07-2023, 00:18:40,    215,    0.0,   12.8,   0.00,   0.00, 1011.5,   98.6, -999.0
13-07-2023, 00:18:50,    231,    0.1,   12.8,   0.00,   0.00, 1011.6,   98.9, -999.0
13-07-2023, 00:18:59,    230,    0.0,   12.7,   0.00,   0.00, 1011.5,   98.7, -999.0
13-07-2023, 00:19:10,    240,    0.3,   12.8,   0.00,   0.00, 1011.5,   98.8, -999.0
13-07-2023, 00:19:20,    234,    0.7,   12.8,   0.00,   0.00, 1011.6,   99.0, -999.0
13-07-2023, 00:19:29,    234,    0.2,   12.8,   0.00,   0.00, 1011.5,   98.7, -999.0
13-07-2023, 00:19:39,    249,    0.3,   12.8,   0.00,   0.00, 1011.5,   98.9, -999.0
13-07-2023, 00:19:50,    249,    0.8,   12.8,   0.00,   0.00, 1011.6,   99.0, -999.0
13-07-2023, 00:20:00,    205,    0.3,   12.8,   0.00,   0.00, 1011.6,   98.9, -999.0
13-07-2023, 00:20:09,    205,    0.1,   12.8,   0.00,   0.00, 1011.6,   98.8, -999.0
13-07-2023, 00:20:20,    215,    0.2,   12.7,   0.00,   0.00, 1011.6,   98.9, -999.0
13-07-2023, 00:20:30,    216,    0.0,   12.7,   0.00,   0.00, 1011.5,   98.6, -999.0
13-07-2023, 00:20:39,    218,    0.0,   12.7,   0.00,   0.00, 1011.5,   98.7, -999.0
13-07-2023, 00:20:49,    273,    0.2,   12.8,   0.00,   0.00, 1011.6,   98.9, -999.0
13-07-2023, 00:21:00,    206,    0.6,   12.8,   0.00,   0.00, 1011.6,   99.0, -999.0
13-07-2023, 00:21:09,    231,    0.4,   12.8,   0.00,   0.00, 1011.7,   99.0, -999.0
13-07-2023, 00:21:19,    243,    0.2,   12.8,   0.00,   0.00, 1011.5,   98.8, -999.0
13-07-2023, 00:21:29,    243,    0.1,   12.8,   0.00,   0.00, 1011.5,   98.9, -999.0
13-07-2023, 00:21:39,    242,    0.0,   12.7,   0.00,   0.00, 1011.5,   98.6, -999.0
13-07-2023, 00:21:49,    244,    0.2,   12.7,   0.00,   0.00, 1011.5,   98.9, -999.0
13-07-2023, 00:21:59,    243,    0.0,   12.8,   0.00,   0.00, 1011.5,   98.7, -999.0
13-07-2023, 00:22:09,    206,    0.1,   12.8,   0.00,   0.00, 1011.5,   98.7, -999.0
13-07-2023, 00:22:19,    275,    1.1,   12.8,   0.00,   0.00, 1011.6,   99.0, -999.0
13-07-2023, 00:22:29,    267,    1.1,   12.8,   0.00,   0.00, 1011.6,   99.0, -999.0
13-07-2023, 00:22:39,    265,    0.0,   12.8,   0.00,   0.00, 1011.5,   98.7, -999.0
13-07-2023, 00:22:49,    262,    0.1,   12.8,   0.00,   0.00, 1011.6,   98.7, -999.0
13-07-2023, 00:22:59,    234,    1.0,   12.8,   0.00,   0.00, 1011.6,   99.0, -999.0
13-07-2023, 00:23:09,    243,    1.3,   12.9,   0.00,   0.00, 1011.6,   99.0, -999.0
13-07-2023, 00:23:19,    246,    1.8,   12.9,   0.00,   0.00, 1011.6,   99.1, -999.0
13-07-2023, 00:23:29,    229,    1.3,   12.9,   0.00,   0.00, 1011.6,   98.9, -999.0
13-07-2023, 00:23:39,    233,    0.6,   12.8,   0.00,   0.00, 1011.6,   99.0, -999.0
13-07-2023, 00:23:49,    193,    2.1,   12.8,   0.00,   0.00, 1011.6,   99.0, -999.0
13-07-2023, 00:23:59,    210,    1.8,   12.8,   0.00,   0.00, 1011.6,   99.0, -999.0
13-07-2023, 00:24:09,    271,    0.4,   12.8,   0.00,   0.00, 1011.6,   98.9, -999.0
13-07-2023, 00:24:19,    271,    0.1,   12.8,   0.00,   0.00, 1011.6,   98.8, -999.0
13-07-2023, 00:24:29,    270,    0.0,   12.8,   0.00,   0.00, 1011.5,   98.6, -999.0
13-07-2023, 00:24:39,    270,    0.0,   12.7,   0.00,   0.00, 1011.5,   98.6, -999.0
13-07-2023, 00:24:49,    238,    0.4,   12.7,   0.00,   0.00, 1011.6,   98.8, -999.0
13-07-2023, 00:24:59,    238,    0.2,   12.8,   0.00,   0.00, 1011.5,   98.9, -999.0
13-07-2023, 00:25:09,    242,    2.7,   12.8,   0.00,   0.00, 1011.6,   99.0, -999.0
13-07-2023, 00:25:19,    245,    3.4,   12.8,   0.00,   0.00, 1011.6,   99.1, -999.0
13-07-2023, 00:25:29,    238,    2.2,   12.8,   0.00,   0.00, 1011.6,   99.1, -999.0
13-07-2023, 00:25:39,    223,    1.4,   12.8,   0.00,   0.00, 1011.6,   99.0, -999.0
13-07-2023, 00:25:49,    218,    0.7,   12.7,   0.00,   0.00, 1011.6,   99.0, -999.0
13-07-2023, 00:25:58,    219,    0.6,   12.8,   0.00,   0.00, 1011.6,   99.0, -999.0
13-07-2023, 00:26:09,    219,    0.0,   12.7,   0.00,   0.00, 1011.5,   98.7, -999.0
13-07-2023, 00:26:19,    217,    0.2,   12.8,   0.00,   0.00, 1011.6,   99.0, -999.0
13-07-2023, 00:26:28,    217,    0.1,   12.8,   0.00,   0.00, 1011.5,   98.8, -999.0
13-07-2023, 00:26:39,    217,    0.0,   12.7,   0.00,   0.00, 1011.5,   98.6, -999.0
13-07-2023, 00:26:49,    217,    0.0,   12.7,   0.00,   0.00, 1011.5,   98.6, -999.0
13-07-2023, 00:26:59,    218,    0.1,   12.7,   0.00,   0.00, 1011.6,   98.7, -999.0
13-07-2023, 00:27:08,    217,    0.2,   12.8,   0.00,   0.00, 1011.6,   98.8, -999.0
13-07-2023, 00:27:19,    217,    0.0,   12.8,   0.00,   0.00, 1011.5,   98.6, -999.0
13-07-2023, 00:27:29,    225,    0.0,   12.8,   0.00,   0.00, 1011.5,   98.6, -999.0
13-07-2023, 00:27:38,    264,    1.4,   12.8,   0.00,   0.00, 1011.7,   99.1, -999.0
13-07-2023, 00:27:48,    259,    1.6,   12.8,   0.00,   0.00, 1011.7,   99.0, -999.0
13-07-2023, 00:27:59,    242,    1.2,   12.8,   0.00,   0.00, 1011.6,   99.1, -999.0
13-07-2023, 00:28:08,    251,    1.5,   12.8,   0.00,   0.00, 1011.6,   99.0, -999.0
13-07-2023, 00:28:18,    250,    0.7,   12.8,   0.00,   0.00, 1011.6,   99.0, -999.0
13-07-2023, 00:28:28,    249,    0.1,   12.7,   0.00,   0.00, 1011.6,   98.8, -999.0
13-07-2023, 00:28:39,    249,    0.0,   12.6,   0.00,   0.00, 1011.5,   98.6, -999.0
13-07-2023, 00:28:48,    250,    0.0,   12.7,   0.00,   0.00, 1011.5,   98.7, -999.0
13-07-2023, 00:28:58,    249,    0.0,   12.8,   0.00,   0.00, 1011.5,   98.6, -999.0
13-07-2023, 00:29:08,    250,    0.0,   12.7,   0.00,   0.00, 1011.5,   98.6, -999.0
13-07-2023, 00:29:18,    251,    0.0,   12.7,   0.00,   0.00, 1011.5,   98.6, -999.0
13-07-2023, 00:29:28,    250,    0.0,   12.7,   0.00,   0.00, 1011.5,   98.6, -999.0
13-07-2023, 00:29:38,    250,    0.0,   12.7,   0.00,   0.00, 1011.5,   98.7, -999.0
13-07-2023, 00:29:48,    250,    0.0,   12.7,   0.00,   0.00, 1011.5,   98.6, -999.0
13-07-2023, 00:29:58,    250,    0.0,   12.7,   0.00,   0.00, 1011.5,   98.7, -999.0
13-07-2023, 00:30:08,    248,    0.6,   12.8,   0.00,   0.00, 1011.6,   98.8, -999.0
13-07-2023, 00:30:18,    248,    1.2,   12.8,   0.00,   0.00, 1011.6,   99.0, -999.0
13-07-2023, 00:30:28,    270,    0.9,   12.9,   0.00,   0.00, 1011.6,   99.0, -999.0
13-07-2023, 00:30:38,    269,    0.5,   12.8,   0.00,   0.00, 1011.6,   98.9, -999.0
13-07-2023, 00:30:48,    269,    0.0,   12.7,   0.00,   0.00, 1011.5,   98.7, -999.0
13-07-2023, 00:30:58,    268,    0.0,   12.7,   0.00,   0.00, 1011.5,   98.6, -999.0
13-07-2023, 00:31:08,    269,    0.0,   12.6,   0.00,   0.00, 1011.5,   98.6, -999.0
13-07-2023, 00:31:18,    220,    0.0,   12.8,   0.00,   0.00, 1011.5,   98.6, -999.0
13-07-2023, 00:31:28,    225,    0.6,   12.8,   0.00,   0.00, 1011.6,   98.8, -999.0
13-07-2023, 00:31:38,    199,    1.5,   12.8,   0.00,   0.00, 1011.6,   99.0, -999.0
13-07-2023, 00:31:48,    198,    0.0,   12.8,   0.00,   0.00, 1011.6,   98.7, -999.0
13-07-2023, 00:31:58,    198,    0.0,   12.7,   0.00,   0.00, 1011.5,   98.7, -999.0
13-07-2023, 00:32:08,    198,    0.0,   12.8,   0.00,   0.00, 1011.5,   98.6, -999.0
13-07-2023, 00:32:18,    232,    0.0,   12.8,   0.00,   0.00, 1011.5,   98.7, -999.0
13-07-2023, 00:32:28,    232,    0.2,   12.8,   0.00,   0.00, 1011.6,   98.9, -999.0
13-07-2023, 00:32:38,    216,    0.4,   12.7,   0.00,   0.00, 1011.6,   98.8, -999.0
13-07-2023, 00:32:48,    243,    0.2,   12.7,   0.00,   0.00, 1011.6,   98.8, -999.0
13-07-2023, 00:32:58,    227,    2.3,   12.8,   0.00,   0.00, 1011.7,   99.0, -999.0
13-07-2023, 00:33:08,    229,    2.0,   12.8,   0.00,   0.00, 1011.7,   99.0, -999.0
13-07-2023, 00:33:18,    238,    1.6,   12.7,   0.00,   0.00, 1011.7,   99.0, -999.0
13-07-2023, 00:33:28,    239,    0.3,   12.8,   0.00,   0.00, 1011.6,   98.8, -999.0
13-07-2023, 00:33:37,    240,    0.3,   12.8,   0.00,   0.00, 1011.6,   98.9, -999.0
13-07-2023, 00:33:48,    241,    0.0,   12.8,   0.00,   0.00, 1011.6,   98.8, -999.0
13-07-2023, 00:33:58,    242,    0.0,   12.7,   0.00,   0.00, 1011.5,   98.7, -999.0
13-07-2023, 00:34:07,    242,    0.0,   12.8,   0.00,   0.00, 1011.5,   98.7, -999.0
13-07-2023, 00:34:18,    242,    0.0,   12.7,   0.00,   0.00, 1011.5,   98.6, -999.0
13-07-2023, 00:34:28,    243,    0.0,   12.7,   0.00,   0.00, 1011.5,   98.6, -999.0
13-07-2023, 00:34:37,    242,    0.0,   12.8,   0.00,   0.00, 1011.5,   98.6, -999.0
13-07-2023, 00:34:47,    237,    0.0,   12.8,   0.00,   0.00, 1011.5,   98.7, -999.0
13-07-2023, 00:34:58,    232,    0.1,   12.6,   0.00,   0.00, 1011.5,   98.8, -999.0
13-07-2023, 00:35:08,    232,    0.3,   12.8,   0.00,   0.00, 1011.6,   98.9, -999.0
13-07-2023, 00:35:17,    231,    0.0,   12.8,   0.00,   0.00, 1011.5,   98.6, -999.0
13-07-2023, 00:35:27,    238,    1.4,   12.8,   0.00,   0.00, 1011.6,   98.9, -999.0
13-07-2023, 00:35:38,    245,    0.4,   12.8,   0.00,   0.00, 1011.6,   99.0, -999.0
13-07-2023, 00:35:47,    262,    0.4,   12.8,   0.00,   0.00, 1011.6,   98.9, -999.0
13-07-2023, 00:35:57,    262,    0.0,   12.8,   0.00,   0.00, 1011.5,   98.7, -999.0
13-07-2023, 00:36:07,    262,    0.0,   12.7,   0.00,   0.00, 1011.5,   98.7, -999.0
13-07-2023, 00:36:17,    262,    0.2,   12.8,   0.00,   0.00, 1011.5,   98.8, -999.0
13-07-2023, 00:36:27,    249,    1.4,   12.8,   0.00,   0.00, 1011.6,   99.0, -999.0
13-07-2023, 00:36:37,    230,    2.1,   12.8,   0.00,   0.00, 1011.6,   99.0, -999.0
13-07-2023, 00:36:47,    230,    0.6,   12.8,   0.00,   0.00, 1011.6,   99.0, -999.0
13-07-2023, 00:36:57,    230,    0.1,   12.8,   0.00,   0.00, 1011.5,   98.8, -999.0
13-07-2023, 00:37:07,    230,    0.0,   12.7,   0.00,   0.00, 1011.4,   98.6, -999.0
13-07-2023, 00:37:17,    230,    0.0,   12.7,   0.00,   0.00, 1011.5,   98.6, -999.0
13-07-2023, 00:37:27,    234,    0.0,   12.8,   0.00,   0.00, 1011.5,   98.7, -999.0
13-07-2023, 00:37:37,    235,    0.2,   12.8,   0.00,   0.00, 1011.6,   98.9, -999.0
13-07-2023, 00:37:47,    235,    0.0,   12.8,   0.00,   0.00, 1011.5,   98.7, -999.0
13-07-2023, 00:37:57,    235,    0.0,   12.7,   0.00,   0.00, 1011.5,   98.6, -999.0
13-07-2023, 00:38:07,    235,    0.0,   12.7,   0.00,   0.00, 1011.4,   98.6, -999.0
13-07-2023, 00:38:17,    208,    0.0,   12.8,   0.00,   0.00, 1011.5,   98.7, -999.0
13-07-2023, 00:38:27,    205,    0.0,   12.7,   0.00,   0.00, 1011.5,   98.8, -999.0
13-07-2023, 00:38:37,    239,    0.5,   12.8,   0.00,   0.00, 1011.5,   98.9, -999.0
13-07-2023, 00:38:47,    235,    0.5,   12.8,   0.00,   0.00, 1011.5,   99.0, -999.0
13-07-2023, 00:38:57,    234,    0.0,   12.8,   0.00,   0.00, 1011.5,   98.6, -999.0
13-07-2023, 00:39:07,    234,    0.0,   12.7,   0.00,   0.00, 1011.5,   98.7, -999.0
13-07-2023, 00:39:17,    234,    0.0,   12.7,   0.00,   0.00, 1011.5,   98.8, -999.0
13-07-2023, 00:39:27,    235,    0.0,   12.7,   0.00,   0.00, 1011.5,   98.7, -999.0
13-07-2023, 00:39:37,    234,    0.0,   12.8,   0.00,   0.00, 1011.4,   98.6, -999.0
13-07-2023, 00:39:47,    235,    0.0,   12.7,   0.00,   0.00, 1011.5,   98.6, -999.0
13-07-2023, 00:39:57,    234,    0.0,   12.7,   0.00,   0.00, 1011.4,   98.6, -999.0
13-07-2023, 00:40:07,    238,    0.0,   12.7,   0.00,   0.00, 1011.4,   98.6, -999.0
13-07-2023, 00:40:17,    244,    0.0,   12.7,   0.00,   0.00, 1011.5,   98.6, -999.0
13-07-2023, 00:40:27,    243,    0.0,   12.8,   0.00,   0.00, 1011.4,   98.6, -999.0
13-07-2023, 00:40:36,    243,    0.0,   12.7,   0.00,   0.00, 1011.5,   98.7, -999.0
13-07-2023, 00:40:47,    263,    0.0,   12.8,   0.00,   0.00, 1011.5,   98.8, -999.0
13-07-2023, 00:40:57,    251,    1.1,   12.8,   0.00,   0.00, 1011.6,   99.0, -999.0
13-07-2023, 00:41:07,    253,    1.2,   12.8,   0.00,   0.00, 1011.6,   99.0, -999.0
13-07-2023, 00:41:16,    256,    0.0,   12.8,   0.00,   0.00, 1011.4,   98.7, -999.0
13-07-2023, 00:41:27,    252,    0.0,   12.8,   0.00,   0.00, 1011.4,   98.7, -999.0
13-07-2023, 00:41:37,    250,    0.0,   12.8,   0.00,   0.00, 1011.4,   98.7, -999.0
13-07-2023, 00:41:46,    250,    0.0,   12.8,   0.00,   0.00, 1011.5,   98.6, -999.0
13-07-2023, 00:41:56,    250,    0.0,   12.8,   0.00,   0.00, 1011.5,   98.7, -999.0
13-07-2023, 00:42:07,    243,    0.2,   12.8,   0.00,   0.00, 1011.5,   98.8, -999.0
13-07-2023, 00:42:16,    243,    0.2,   12.8,   0.00,   0.00, 1011.5,   98.7, -999.0
13-07-2023, 00:42:26,    243,    0.0,   12.8,   0.00,   0.00, 1011.5,   98.7, -999.0
13-07-2023, 00:42:37,    259,    1.5,   12.9,   0.00,   0.00, 1011.6,   99.1, -999.0
13-07-2023, 00:42:46,    266,    2.3,   12.9,   0.00,   0.00, 1011.6,   99.1, -999.0
13-07-2023, 00:42:56,    238,    0.4,   12.9,   0.00,   0.00, 1011.6,   99.0, -999.0
13-07-2023, 00:43:06,    238,    0.2,   12.8,   0.00,   0.00, 1011.5,   98.8, -999.0
13-07-2023, 00:43:17,    239,    0.0,   12.8,   0.00,   0.00, 1011.5,   98.7, -999.0
13-07-2023, 00:43:26,    234,    0.6,   12.8,   0.00,   0.00, 1011.6,   98.9, -999.0
13-07-2023, 00:43:36,    251,    0.5,   12.8,   0.00,   0.00, 1011.5,   98.8, -999.0
13-07-2023, 00:43:46,    253,    1.5,   12.8,   0.00,   0.00, 1011.6,   99.0, -999.0
13-07-2023, 00:43:56,    247,    1.2,   12.9,   0.00,   0.00, 1011.6,   98.9, -999.0
13-07-2023, 00:44:06,    234,    1.1,   12.8,   0.00,   0.00, 1011.6,   99.0, -999.0
13-07-2023, 00:44:16,    242,    1.3,   12.9,   0.00,   0.00, 1011.6,   99.1, -999.0
13-07-2023, 00:44:26,    251,    2.4,   12.8,   0.00,   0.00, 1011.6,   99.1, -999.0
13-07-2023, 00:44:36,    229,    0.9,   12.8,   0.00,   0.00, 1011.5,   99.0, -999.0
13-07-2023, 00:44:46,    230,    0.5,   12.8,   0.00,   0.00, 1011.5,   98.9, -999.0
13-07-2023, 00:44:56,    269,    0.9,   12.8,   0.00,   0.00, 1011.5,   99.0, -999.0
13-07-2023, 00:45:06,    184,    0.5,   12.8,   0.00,   0.00, 1011.5,   98.9, -999.0
13-07-2023, 00:45:16,    279,    0.5,   12.8,   0.00,   0.00, 1011.5,   99.0, -999.0
13-07-2023, 00:45:26,    282,    0.4,   12.8,   0.00,   0.00, 1011.5,   98.9, -999.0
13-07-2023, 00:45:36,    241,    1.5,   12.8,   0.00,   0.00, 1011.6,   99.0, -999.0
13-07-2023, 00:45:46,    235,    1.0,   12.8,   0.00,   0.00, 1011.6,   99.0, -999.0
13-07-2023, 00:45:56,    225,    0.6,   12.9,   0.00,   0.00, 1011.6,   99.0, -999.0
13-07-2023, 00:46:06,    252,    1.6,   12.8,   0.00,   0.00, 1011.5,   98.9, -999.0
13-07-2023, 00:46:16,    242,    1.6,   12.8,   0.00,   0.00, 1011.6,   99.0, -999.0
13-07-2023, 00:46:26,    242,    0.5,   12.8,   0.00,   0.00, 1011.6,   98.9, -999.0
13-07-2023, 00:46:36,    231,    1.3,   12.8,   0.00,   0.00, 1011.5,   98.9, -999.0
13-07-2023, 00:46:46,    248,    3.1,   12.8,   0.00,   0.00, 1011.5,   99.0, -999.0